Location: Coll
(42.4728°N, 0.7714°E)
Time: 11:50:22
(UTC+00:00)

PAYLOAD A - Pass Details

Date: 23 October 2020
Orbit: 692 x 831 km, 98.3° (Epoch: 30 November)

Event Time Altitude Azimuth Distance (km) Brightness Sun altitude
Rises 04:19:07 0° 8° (N) 3,193 7.4 -22.9°
Reaches altitude 10° 04:21:25 10° 3° (N) 2,286 6.5 -22.5°
Maximum altitude 04:26:18 52° 288° (WNW) 957 4.1 -21.6°
Enters shadow 04:27:07 47° 256° (WSW) 1,023 4.2 -21.4°
